Location: Bonfruit
(48.6424°N, 2.9130°E)
Time: 02:27:56
(UTC+00:00)

Daily predictions for brighter satellites

Satellite Brightness Start Highest point End
(mag) Time Altitude Azimuth Time Altitude Azimuth Time Altitude Azimuth
Cosmos 1441 Rocket 3.4 00:01:21 10° N 00:04:53 52° ENE 00:05:10 50° E
Cosmos 1766 4.5 00:02:15 10° NNW 00:05:29 28° W 00:05:29 28° W
Cosmos 1933 Rocket 3.6 00:02:12 10° NNW 00:06:29 61° W 00:07:05 54° SW
Meteor 1-15 Rocket 4.4 00:02:42 10° N 00:08:23 69° ENE 00:10:45 35° SSE
Cosmos 1707 2.5 00:08:39 74° W 00:08:45 75° W 00:12:25 10° N
Cosmos 1470 2.9 00:05:58 10° NNW 00:09:34 52° W 00:09:34 52° W
USA 59 Rocket 1.2 00:06:12 10° WNW 00:09:32 31° WSW 00:09:32 31° WSW
Cosmos 1697 Rocket 2.6 00:04:55 10° NNW 00:10:36 88° ENE 00:12:58 37° SSE
SL-08 ROCKET BODY 4.4 00:08:51 40° S 00:11:17 82° E 00:17:30 10° N
Cosmos 1980 Rocket 2.9 00:10:34 10° NNW 00:16:09 52° NE 00:20:33 16° SE
KORONAS-FOTON 4.1 00:17:39 47° W 00:17:52 48° WNW 00:21:27 10° N
Cosmos 1758 4.1 00:14:41 10° N 00:18:21 42° ENE 00:19:14 36° ESE
Meteor 1-22 Rocket 4.0 00:16:10 10° N 00:21:30 84° E 00:23:28 41° SSE
Cosmos 2266 Rocket 4.0 00:19:48 38° SSW 00:22:16 77° W 00:28:32 10° N
Cosmos 883 Rocket 4.4 00:19:23 10° N 00:25:37 82° W 00:28:17 37° S
Cosmos 1607 4.2 00:23:16 38° S 00:25:40 59° ESE 00:32:03 10° NE
BREEZE-M DEB (TANK) 2.7 00:23:43 10° W 00:27:46 44° NNW 00:29:50 10° ENE
In-Cosmos 22 4.2 00:33:20 39° SSW 00:35:34 81° WNW 00:41:23 10° N
Helios 1A Rocket 3.0 00:35:43 47° SE 00:36:39 67° ENE 00:40:31 10° N
Lacrosse 5 rocket 3.4 00:35:52 10° NW 00:39:33 29° NNE 00:43:07 10° ENE
Cosmos 2228 Rocket 3.2 00:38:49 46° SSE 00:39:58 67° E 00:44:26 10° NNE
Cosmos 1674 4.3 00:41:25 20° W 00:41:52 20° WNW 00:44:32 10° NNW
SL-16 R/B 4.3 00:37:12 10° NNW 00:41:55 26° NE 00:46:38 10° E
Cosmos 1707 Rocket 3.8 00:40:48 43° SSE 00:42:00 61° E 00:46:24 10° NNE
Cosmos 1140 Rocket 3.7 00:45:22 37° SW 00:47:24 66° WNW 00:52:38 10° NNE
Cosmos 2251 Rocket 3.4 00:46:23 41° SSW 00:48:14 82° ESE 00:53:32 10° NNE
SL-19 R/B 4.5 00:44:53 10° NNE 00:49:19 73° WNW 00:50:19 50° SW
Meteor 2-20 4.4 00:43:35 10° N 00:49:47 89° W 00:52:54 31° S
USA 267 3.7 00:44:02 10° NE 00:50:28 63° NNW 00:56:54 10° WSW
NOSS 3-3 (A) 4.3 00:47:03 22° WSW 00:50:45 58° NW 00:57:18 10° NE
Cosmos 2082 Rocket 2.7 00:50:37 32° SSE 00:52:55 49° ESE 00:58:24 10° NE
Cosmos 1300 2.3 00:49:38 10° N 00:53:13 85° W 00:53:36 70° S
Meteor 2-10 Rocket 3.8 00:55:04 10° NNW 01:00:51 67° W 01:03:23 34° SSW
Cosmos 407 Rocket 3.6 00:58:46 36° SW 01:00:56 74° WNW 01:06:14 10° NNE
Cosmos 1833 Rocket 3.2 00:58:49 26° WSW 01:01:46 51° NW 01:07:16 10° NNE
ADEOS II 4.1 00:58:45 10° NE 01:02:27 19° E 01:06:07 10° SE
Cosmos 1954 Rocket 4.5 01:01:04 31° SSE 01:03:18 52° ESE 01:08:28 10° NNE
Cosmos 44 Rocket 3.4 00:58:37 10° NW 01:03:26 52° WSW 01:04:42 40° SSW
Cosmos 468 Rocket 4.1 00:58:55 10° NNW 01:04:15 75° ENE 01:07:57 20° SSE
Cosmos 1190 Rocket 4.1 01:02:08 36° S 01:04:15 70° ESE 01:09:33 10° NNE
Okean 1-7 3.8 01:03:32 28° SE 01:05:16 43° E 01:09:21 10° NNE
MOZ.5/SAFIR/RUBIN 5/SL-8 3.9 01:02:50 28° SSE 01:05:21 74° ENE 01:10:05 10° N
Okean 2 4.4 01:04:37 27° SE 01:06:07 38° E 01:09:49 10° NNE
NOSS 3-4 (A) 3.8 00:59:30 10° NW 01:06:21 73° SW 01:14:14 10° SSE
NOSS 3-4 (C) 3.8 00:59:33 10° NW 01:06:24 73° SW 01:14:18 10° SSE
Cosmos 381 Rocket 4.5 01:02:14 10° NNW 01:08:42 85° WSW 01:13:11 21° SSE
Cosmos 1908 Rocket 4.5 01:04:26 10° N 01:08:44 45° ENE 01:11:38 19° SE
Cosmos 1400 Rocket 3.0 01:10:07 45° SW 01:11:05 61° WNW 01:15:04 10° N
GP-B 4.4 01:08:19 10° NNW 01:12:01 27° WNW 01:13:13 23° WSW
IDEFIX/ARIANE 42P 3.4 01:08:03 10° NNE 01:13:06 44° E 01:16:06 22° SSE
BREEZE-M DEB (TANK) 3.7 01:12:17 25° W 01:14:07 45° SSW 01:23:06 10° SE
Cosmos 2285 Rocket 4.5 01:14:03 24° SW 01:17:40 52° WNW 01:23:51 10° NNE
SL-8 R/B 3.5 01:14:06 10° W 01:18:52 78° SSW 01:23:39 10° ESE
Cosmos 1763 Rocket 3.6 01:13:38 10° NNW 01:18:52 60° WSW 01:21:16 31° S
ATLAS CENTAUR R/B 4.4 01:06:24 10° NW 01:19:33 57° SW 01:28:17 10° SSE
SL-08 R/B 4.5 01:18:20 27° S 01:21:55 82° E 01:28:07 10° N
Cosmos 2278 4.4 01:17:03 10° NNW 01:22:40 55° ENE 01:28:17 10° SE
Cosmos 1733 Rocket 3.5 01:18:42 10° NNW 01:22:49 44° W 01:23:56 36° SW
CZ-2D R/B 3.1 01:18:21 10° NNE 01:23:32 41° E 01:27:12 18° SSE
Nadezhda 2 Rocket 4.5 01:21:14 29° SSW 01:24:44 82° W 01:31:09 10° N
USA 234 4.0 01:26:06 27° SSW 01:27:41 30° SW 01:33:19 10° WNW
Okean 3 3.4 01:26:35 40° SSW 01:27:56 70° W 01:32:02 10° N
Cosmos 1346 Rocket 2.8 01:26:01 10° NNW 01:29:50 58° W 01:30:55 41° SSW
Cosmos 2333 Rocket 4.3 01:25:21 10° NNW 01:30:13 28° NE 01:35:04 10° ESE
COBE Rocket 4.1 01:26:03 10° NNE 01:30:52 64° E 01:33:40 25° S
Aureole 3 3.1 01:30:43 42° W 01:30:58 44° WNW 01:33:50 10° N
Cosmos 1356 Rocket 3.4 01:30:15 38° SW 01:31:36 64° WNW 01:35:41 10° N
SL-14 R/B 4.4 01:38:00 26° WSW 01:39:09 30° WNW 01:42:38 10° N
Cosmos 1953 2.1 01:39:33 10° NNW 01:43:28 78° W 01:45:20 30° S
Cosmos 2322 Rocket 3.5 01:38:46 10° NNW 01:44:07 42° NE 01:49:29 10° ESE
Nadezhda 1 Rocket 4.0 01:38:46 10° N 01:45:13 86° W 01:50:30 16° S
Cosmos 540 Rocket 3.8 01:41:18 10° NNW 01:46:14 47° WSW 01:48:53 25° SSW
Resurs 1-4 Rocket 2.3 01:42:38 10° NNE 01:47:54 67° ESE 01:51:27 21° S
Cosmos 1703 Rocket 3.6 01:47:02 26° S 01:49:28 83° E 01:53:55 10° N
CZ-2C R/B 2.5 01:45:43 14° SSE 01:50:14 87° ENE 01:55:27 10° NNW
Cosmos 1697 Rocket 4.3 01:50:26 10° WNW 01:53:45 16° W 01:54:39 16° WSW
COSMOS 2406 3.3 01:54:13 23° SW 01:57:52 71° WNW 02:03:38 10° NNE
DELTA 2 R/B (1) 4.4 01:56:34 24° SSW 01:58:39 31° S 02:03:30 10° ESE
Cosmos 1980 Rocket 3.1 01:55:01 10° NW 01:59:53 30° WSW 02:02:15 22° SW
ATLAS 2AS CENTAUR R/B 4.3 01:56:58 10° NW 02:03:24 38° NNE 02:09:36 10° E
MSX 3.8 01:58:04 10° NNE 02:03:52 86° WNW 02:08:03 19° SSW
NPP 3.7 01:58:28 10° NNE 02:03:52 76° WNW 02:07:34 21° SSW
Cosmos 2369 4.4 01:58:46 10° NW 02:03:55 35° WSW 02:07:05 20° SSW
SL-16 R/B 2.8 02:01:45 10° SSE 02:07:58 73° ENE 02:14:14 10° NNW
Cosmos 1455 2.4 02:07:13 10° NNW 02:10:30 42° W 02:11:55 27° SSW
Cosmos 1300 Rocket 3.5 02:06:10 10° N 02:10:32 83° E 02:14:43 11° S
Cosmos 1315 Rocket 2.8 02:11:23 25° SSW 02:13:31 61° WNW 02:17:23 10° N
Cosmos 2098 Rocket 4.4 02:09:50 10° N 02:14:31 51° ENE 02:20:07 10° SSE
Meteor 1-4 Rocket 2.6 02:13:31 29° SW 02:14:34 43° WNW 02:17:26 10° N
H-2A R/B 3.9 02:14:12 10° N 02:18:01 44° WNW 02:20:21 21° SW
Lacrosse 5 rocket 1.3 02:14:17 10° NW 02:18:24 79° NE 02:22:19 10° ESE
Cosmos 1709 Rocket 4.0 02:19:07 14° SSW 02:24:33 81° W 02:30:58 10° N
BREEZE-M DEB (TANK) 2.0 02:19:15 10° W 02:24:34 79° N 02:26:53 10° E
SL-16 R/B 2.2 02:20:54 10° NNW 02:26:34 70° WSW 02:32:11 10° SSE
RESURS DK-1 4.1 02:23:58 10° NNW 02:27:44 35° NE 02:31:29 10° ESE
Cosmos 968 Rocket 3.9 02:24:00 13° S 02:28:30 59° ESE 02:33:32 10° NNE
COSMOS 2441 4.4 02:24:49 10° N 02:29:37 72° WNW 02:33:30 15° SSW
Cosmos 841 Rocket 3.9 02:27:36 10° NW 02:32:31 43° WSW 02:37:26 10° S
USA 267 4.4 02:26:51 10° ENE 02:32:56 43° N 02:39:01 10° WNW
Cosmos 2082 Rocket 3.3 02:32:26 12° WSW 02:37:11 35° NW 02:42:24 10° NNE
Meteor 1-24 Rocket 4.4 02:32:12 10° S 02:38:06 61° E 02:44:03 10° NNE
Cosmos 2237 4.4 02:34:16 10° NW 02:39:48 50° WSW 02:45:17 10° S
Cosmos 1408 2.0 02:39:55 16° SSW 02:42:12 74° W 02:45:12 10° N
ADEOS II 2.2 02:37:21 10° N 02:42:34 68° WNW 02:47:23 12° SSW
Cosmos 1782 Rocket 4.2 02:41:12 10° NNW 02:45:14 36° W 02:48:48 12° SSW
Cosmos 2219 Rocket 3.3 02:40:29 10° NNW 02:45:59 50° NE 02:51:28 10° SE
SJ 16-02 1.7 02:42:08 10° S 02:46:21 60° ESE 02:50:38 10° NNE
Geosat 4.0 02:41:48 10° SSE 02:46:49 88° WSW 02:51:53 10° NNW
IRAS Rocket 4.3 02:43:33 10° NNE 02:49:07 85° ESE 02:54:36 10° SSW
IDEFIX/ARIANE 42P 3.7 02:47:53 10° N 02:52:27 31° WNW 02:56:51 11° WSW
Cosmos 2360 Rocket 2.2 02:47:10 10° NNW 02:52:53 85° WSW 02:58:34 10° SSE
Cosmos 405 Rocket 4.0 02:51:05 10° N 02:54:28 39° ENE 02:57:53 10° SE
Cosmos 1814 Rocket 4.0 02:49:44 10° NNW 02:54:56 75° WSW 03:00:09 10° SSE
Cosmos 1825 4.1 02:52:16 10° SSE 02:55:06 25° E 02:57:57 10° NE
SL-27 R/B 2.4 02:55:26 10° S 02:58:12 56° ESE 03:00:59 10° NNE
ALOS 2.3 02:55:14 10° N 02:59:52 76° WNW 03:04:28 10° SSW
CZ-2C R/B 3.8 02:54:31 10° N 03:00:05 48° WNW 03:05:35 10° SW
SL-8 R/B 4.3 02:56:40 10° W 03:00:58 34° SSW 03:05:17 10° SSE
CZ-2D R/B 3.1 02:58:33 10° N 03:03:27 35° WNW 03:08:19 10° SW
Meteor 2-5 Rocket 3.9 03:00:09 10° SSW 03:06:03 84° W 03:12:03 10° N
Cosmos 1242 Rocket 3.3 03:04:31 12° SW 03:06:42 25° WNW 03:09:11 10° NNW
CZ-4 R/B 4.3 03:02:26 10° NNE 03:07:04 62° ESE 03:11:45 10° S
Cosmos 1703 3.3 03:04:17 10° SSW 03:07:59 59° WNW 03:11:42 10° N
Cosmos 2242 Rocket 4.2 03:03:50 10° SW 03:08:00 41° WNW 03:12:16 10° N
Cosmos 2221 Rocket 4.2 03:03:46 10° S 03:08:14 59° E 03:12:43 10° NNE
Sich 1 Rocket 3.7 03:07:54 10° N 03:12:28 88° E 03:16:57 10° S
Cosmos 2333 Rocket 2.2 03:09:18 10° NNW 03:14:58 66° WSW 03:20:38 10° SSE
FENGYUN 3A 4.4 03:12:21 10° N 03:17:21 40° WNW 03:22:19 10° SW
YAOGAN 6 3.6 03:15:18 10° NNE 03:18:29 41° E 03:21:38 10° S
Cosmos 2151 Rocket 3.6 03:14:48 10° NNW 03:19:18 74° W 03:23:44 10° S
ASTEX 1 4.0 03:14:53 10° SSE 03:19:45 63° E 03:24:38 10° N
Cosmos 2074 Rocket 4.0 03:18:31 10° SSW 03:24:46 80° W 03:31:01 10° N
UNK 4.3 03:21:01 10° SSW 03:25:20 38° W 03:29:41 10° NNW
